User: anonymous   Login
Location: Unspecified
(0.0000°N, 0.0000°E)
Time: 14:12:13
(UTC+01:00)
Language:

Cosmos 494 Rocket - Orbit

View from above orbital plane
View from above orbital plane
View from above satellite
View from above satellite

Ground track
Ground track

The orbit data is extracted from the following two-line orbital elements,

1 06061U 72043B   15030.85718624  .00000258  00000-0  89697-4 0  6400
2 06061 074.0600 343.6738 0020849 329.1572 094.9184 14.40287585233296
Epoch (UTC): 30 January 2015 20:34:20
Eccentricity: 0.0020849
inclination: 74.0600°
perigee height: 742 km
apogee height: 772 km
right ascension of ascending node: 343.6738°
argument of perigee: 329.1572°
revolutions per day: 14.40287585
mean anomaly at epoch: 94.9184°
orbit number at epoch: 23329

The dashed part of the orbit path shows where the satellite is in the earth's shadow,  

DLR